Terminal Aerodrome Forecast
Issued by NWS Duluth, MN

Home | Current Version | Previous Version | Text Only | Print | Product List | Glossary On
Versions: 1 2 3 4 5 6 7 8 9 10 11 12
589
FTUS43 KDLH 292322
TAFINL
TAF
KINL 292322Z 3000/3024 VRB04KT P6SM SCT060=

USA.gov is the U.S. government's official web portal to all federal, state and local government web resources and services.